Probability
0 0 0 0 0 0 0 0 0 0 0 0 0 1 2 2 1 1 1 0 0 0 0 0 0 0 0 0 0 0 0 0 0 0 0 0 0 0 0 0 0 0 0
0 0 0 0 0 0 0 0 0 0 0 0 0 0 1 1 1 2 1 0 0 0 0 0 0 0 0 0 0 0 0 0 0 0 0 0 0 0 0 0 0 0 0
0 0 0 0 0 0 0 0 0 0 0 0 0 0 0 0 1 1 1 0 0 0 1 1 1 0 0 0 0 0 0 0 0 0 0 0 0 0 0 0 0 0 0
0 0 0 0 0 0 0 0 0 0 0 0 0 0 0 0 0 0 0 0 0 0 1 2 1 0 0 0 0 0 0 0 0 0 0 0 0 0 0 0 0 0 0
0 0 0 0 0 0 0 0 0 0 0 0 0 0 0 0 0 0 0 0 0 0 1 1 1 0 0 0 0 0 0 0 0 0 0 0 0 0 0 0 0 0 0
0 0 0 0 0 0 0 0 0 0 0 0 0 0 0 0 0 0 0 0 0 0 0 0 0 0 0 0 0 0 0 0 0 0 0 0 0 0 0 0 0 0 0
0 0 0 0 0 0 0 0 0 0 0 0 0 0 0 0 0 0 0 0 0 0 0 0 0 0 0 0 0 0 0 0 0 0 0 0 0 0 0 0 0 0 0
0 0 0 0 0 0 0 0 0 0 0 0 0 0 0 0 0 0 0 0 0 0 0 0 0 0 0 0 0 0 0 0 0 0 0 0 0 0 0 0 0 0 0
0 0 0 0 0 0 0 0 0 0 0 0 0 0 0 0 0 0 0 0 0 0 0 0 0 0 0 0 0 0 0 0 0 0 0 0 0 0 0 0 0 0 0
0 0 0 0 0 0 0 0 0 0 0 0 0 0 0 0 0 0 0 0 0 0 0 0 0 0 0 0 0 0 0 0 0 0 0 0 0 0 0 0 0 0 0
0 0 0 0 0 0 0 0 0 0 0 0 0 0 0 0 0 0 0 0 0 0 0 0 0 0 0 0 0 0 0 0 0 0 0 0 0 0 0 0 0 0 0
0 0 0 0 0 0 0 0 0 0 0 0 0 0 0 0 0 0 0 0 0 0 0 0 0 0 0 0 0 0 0 0 0 0 0 0 0 0 0 0 0 0 0
0 0 0 0 0 0 0 0 0 0 0 0 0 0 0 0 0 0 0 0 0 0 0 0 0 0 0 0 0 0 0 0 0 0 0 0 0 0 0 0 0 0 0
0 0 0 0 0 0 0 0 0 0 0 0 0 0 0 0 0 0 0 0 0 0 0 0 0 0 0 0 0 0 0 0 0 0 0 0 0 0 0 0 0 0 0
0 0 0 0 0 0 0 0 0 0 0 0 0 0 0 0 0 0 0 0 0 0 0 0 0 0 0 0 0 0 0 0 0 0 0 0 0 0 0 0 0 0 0
0 0 0 0 0 0 0 0 0 0 0 0 0 0 0 0 0 0 0 0 0 0 0 0 0 0 0 0 0 0 0 0 0 0 0 0 0 0 0 0 0 0 0
0 0 0 0 0 0 0 0 0 0 0 0 0 0 0 0 0 0 0 0 0 0 0 0 0 0 0 0 0 0 0 0 0 0 0 0 0 0 0 0 0 0 0
0 0 0 0 0 0 0 0 0 0 0 0 0 0 0 0 0 0 0 0 0 0 0 0 0 0 0 0 0 0 0 0 0 0 0 0 0 0 0 0 0 0 0
0 0 0 0 0 0 0 0 0 0 0 0 0 0 0 0 0 0 0 0 0 0 0 0 0 0 0 0 0 0 0 0 0 0 0 0 0 0 0 0 0 0 0
0 0 0 0 0 0 0 0 0 0 0 0 0 0 0 0 0 0 0 0 0 0 0 0 0 0 0 0 0 0 0 0 0 0 0 0 0 0 0 0 0 0 0
0 0 0 0 0 0 0 0 0 0 0 0 0 0 0 0 0 0 0 0 0 0 0 0 0 0 0 0 0 0 0 0 0 0 0 0 0 0 0 0 0 0 0
0 0 0 0 0 0 0 0 0 0 0 0 0 0 0 0 0 0 0 0 0 0 0 0 0 0 0 0 0 0 0 0 0 0 0 0 0 0 0 0 0 0 0
0 0 0 0 0 0 0 0 0 0 0 0 0 0 0 0 0 0 0 0 0 0 0 0 0 0 0 0 0 0 0 0 0 0 0 0 0 0 0 0 0 0 0
0 0 0 0 0 0 0 0 0 0 0 0 0 0 0 0 0 0 0 0 0 0 0 0 0 0 0 0 0 0 0 0 0 0 0 0 0 0 0 0 0 0 0
0 0 0 0 0 0 0 0 0 0 0 0 0 0 0 0 0 0 0 0 0 0 0 0 0 0 0 0 0 0 0 0 0 0 0 0 0 0 0 0 0 0 0
0 0 0 0 0 0 0 0 0 0 0 0 0 0 0 0 0 0 0 0 0 0 0 0 0 0 0 0 0 0 0 0 0 0 0 0 0 0 0 0 0 0 0
Wind_Speed
1 1 4 6 8 9 10 10 11 11 11 11 11 12 12 12 12 11 11 11 11 11 12 12 12 12 12 12 11 11 11 11 10 10 10 9 9 9 10 9 8 6 10
2 2 5 6 8 9 10 10 11 11 11 11 11 11 12 12 12 12 11 11 11 10 11 11 11 11 11 11 10 10 10 10 10 10 9 7 7 8 9 9 8 5 8
5 3 5 6 9 9 10 10 10 10 10 11 11 11 12 12 11 11 11 11 11 11 11 10 10 10 10 10 9 9 9 9 10 9 8 4 4 7 8 7 7 7 7
5 4 5 7 9 9 10 10 10 10 9 10 10 11 11 11 11 11 11 10 10 10 10 10 10 9 9 8 8 8 8 9 9 9 5 3 3 6 7 7 7 7 7
5 5 5 8 9 9 9 9 9 10 9 9 10 10 10 10 10 10 10 10 10 9 9 9 9 9 9 8 8 8 8 8 9 7 4 3 2 5 6 6 6 6 6
6 5 5 8 9 9 9 10 10 9 9 9 9 9 9 9 9 9 9 9 9 9 9 9 8 8 8 8 8 8 8 8 7 4 4 3 2 5 6 6 6 6 6
6 5 5 8 9 9 9 10 10 10 10 9 9 9 9 9 9 9 8 8 9 9 9 8 8 8 7 8 8 9 8 8 5 4 3 3 3 6 6 6 6 6 6
6 5 5 9 9 9 9 9 9 10 10 9 9 9 9 9 9 9 8 8 8 8 8 8 8 7 7 7 8 8 9 7 5 4 3 3 4 5 5 5 5 5 5
6 6 5 5 6 8 9 9 9 9 9 9 9 9 9 8 8 8 9 8 8 8 8 8 8 8 7 7 7 8 8 7 4 3 3 2 4 5 5 5 5 5 5
6 6 5 5 5 4 5 8 8 9 9 9 9 8 8 8 7 7 7 7 7 7 7 8 8 8 8 8 7 7 7 6 4 3 3 3 5 5 5 5 5 4 4
6 5 5 5 5 4 4 6 6 7 9 8 7 8 6 4 3 3 5 7 7 7 7 7 7 7 7 7 7 7 6 3 3 3 3 5 5 5 5 4 4 4 5
4 4 5 5 5 4 4 4 4 4 5 5 5 5 4 3 3 4 5 6 6 7 6 7 7 6 5 3 5 5 3 3 3 3 3 7 6 5 5 5 5 5 5
3 4 4 4 4 4 3 3 3 3 3 4 5 5 4 3 3 3 2 3 3 4 3 5 5 4 3 3 3 3 3 3 2 2 4 8 8 6 6 6 6 6 6
4 4 3 3 4 4 4 3 3 2 2 3 3 4 3 3 3 3 3 3 3 2 3 3 2 3 3 3 3 3 3 2 2 2 3 7 8 8 7 7 7 6 6
4 3 3 3 3 3 3 3 3 3 2 2 3 3 4 3 3 3 2 3 3 3 3 2 3 3 3 3 3 3 3 2 2 2 2 6 8 8 8 8 8 8 8
3 3 2 3 3 3 3 3 2 2 2 2 3 3 4 3 3 2 3 3 3 3 2 2 2 2 2 2 3 3 2 2 2 2 2 4 7 8 8 8 9 10 9
3 3 2 3 3 3 3 3 2 2 2 3 3 3 4 4 3 2 3 3 3 3 3 2 2 2 2 3 3 3 2 2 2 2 2 2 3 7 9 9 9 10 10
3 3 2 3 3 3 3 2 2 2 2 2 2 3 4 4 4 3 2 3 3 2 3 2 2 2 2 2 2 2 2 2 2 2 2 2 2 3 6 10 10 10 10
2 2 2 2 3 2 2 2 3 2 3 3 3 3 4 5 5 3 2 3 3 2 3 3 3 2 2 3 2 2 2 1 1 2 2 3 3 4 4 7 10 10 11
2 2 2 2 2 2 2 2 3 3 3 3 3 3 4 4 4 4 3 4 4 3 3 3 4 3 2 2 2 2 2 1 1 1 2 2 3 4 4 5 4 6 11
3 2 2 3 2 2 1 1 2 2 2 2 3 3 4 4 4 4 3 3 3 3 3 3 3 3 3 3 1 2 2 2 2 2 2 2 3 4 4 4 4 3 4
2 2 2 2 2 2 1 1 1 1 2 2 2 3 4 4 4 4 4 3 3 3 4 4 3 3 2 3 1 1 2 2 2 2 1 1 2 3 4 5 4 5 4
2 2 1 1 2 2 2 2 3 2 2 2 2 3 4 4 4 4 4 3 3 3 3 4 3 3 2 2 2 1 1 2 3 2 2 2 3 2 3 4 5 5 5
2 2 2 2 2 2 2 3 3 2 1 1 1 2 3 4 4 4 4 4 3 3 3 4 4 2 2 2 2 2 1 1 1 3 2 2 3 3 3 4 4 4 4
1 2 2 2 2 2 2 3 3 2 1 1 1 2 3 3 4 4 4 3 3 3 3 3 4 3 2 2 1 1 1 1 1 2 4 4 4 2 2 3 2 3 4
1 1 2 2 2 2 2 3 3 2 1 2 2 2 2 2 2 3 3 3 3 3 3 3 3 3 3 2 2 1 1 1 1 2 3 4 5 3 3 2 2 2 3
Wind_Direction
43 15 81 99 101 102 100 94 89 86 84 85 87 85 81 79 78 74 72 72 71 72 72 70 68 66 64 62 61 60 60 57 55 53 52 57 61 63 63 61 55 47 52
121 97 84 93 97 99 98 94 90 88 84 83 86 85 82 79 76 74 72 72 72 72 72 71 68 66 63 60 60 58 55 50 48 46 45 49 54 60 61 61 59 55 53
104 97 91 82 91 93 94 92 89 86 84 82 83 84 82 78 74 71 69 68 68 68 69 68 66 64 62 58 56 54 51 47 43 40 42 29 37 56 60 60 61 56 52
104 100 94 84 89 92 93 90 86 84 84 83 82 82 80 77 73 70 67 65 64 64 65 64 62 61 59 57 55 52 47 44 41 37 30 21 20 51 58 58 61 58 54
91 86 87 82 87 90 91 90 87 85 82 82 83 81 79 76 72 68 65 64 61 61 63 62 59 56 54 51 49 47 44 41 38 33 20 19 12 47 53 55 56 53 51
82 77 81 77 84 85 84 84 84 82 81 80 80 79 77 73 70 67 64 62 59 57 57 57 59 54 50 47 43 41 41 41 37 26 19 10 5 43 49 53 54 53 48
83 72 78 72 72 73 78 79 78 76 76 77 75 74 74 71 68 65 62 62 59 55 53 51 54 52 47 42 41 37 35 38 38 30 18 2 12 43 46 48 50 48 46
88 75 72 70 68 65 66 70 73 73 73 72 71 70 71 71 67 63 58 58 55 53 51 48 45 43 40 38 38 37 36 36 34 28 9 353 19 40 44 47 49 42 34
82 75 63 60 62 63 63 65 68 67 68 69 67 65 63 63 64 61 55 54 53 51 49 45 41 35 31 32 37 40 38 37 32 17 7 357 20 37 40 40 37 33 28
74 69 61 55 55 56 59 62 62 62 59 57 56 56 55 55 57 56 49 48 50 49 47 44 40 35 31 30 36 36 35 32 23 11 360 358 18 27 28 31 28 23 22
68 60 56 52 49 48 56 59 57 60 57 52 46 46 47 40 40 46 41 43 43 42 41 39 35 31 28 25 30 35 36 23 17 14 357 7 16 20 23 18 17 23 17
72 63 58 55 48 47 53 53 47 52 51 49 40 34 34 33 29 36 36 37 35 32 30 30 27 24 24 17 23 31 28 22 26 12 5 12 15 17 20 17 18 18 13
99 76 64 62 59 53 51 58 49 46 45 44 40 34 33 34 28 28 27 25 21 22 14 16 17 11 11 16 21 19 20 23 19 6 8 16 12 10 11 14 16 14 10
106 85 71 63 62 58 56 60 61 55 49 44 37 39 41 35 27 22 22 9 12 10 12 15 13 11 13 17 27 24 18 18 11 6 10 16 12 9 6 6 6 3 2
114 98 83 70 65 64 62 59 60 55 51 42 40 40 47 46 30 22 20 15 11 8 8 6 14 17 12 10 17 24 16 15 12 13 3 17 14 12 12 10 9 7 4
123 115 103 88 78 75 67 65 66 53 45 44 40 35 41 47 37 28 21 16 8 5 357 350 4 11 3 12 13 6 358 4 8 10 14 16 20 18 15 12 9 6 2
144 132 123 114 90 89 86 78 74 61 55 49 38 33 39 39 32 27 26 18 1 356 357 356 7 9 12 14 4 351 353 2 360 15 25 25 13 15 12 13 11 6 3
134 128 120 104 97 92 90 83 77 72 66 54 42 35 36 35 30 32 30 13 356 4 9 7 8 9 11 4 347 335 343 351 7 16 34 33 25 17 10 13 11 5 0
130 126 114 103 108 100 89 87 85 77 64 54 47 40 37 36 30 30 27 11 4 14 17 10 9 6 5 357 335 327 334 342 358 25 39 37 32 26 17 13 11 7 360
111 109 105 91 84 93 90 74 69 65 54 48 46 40 39 34 31 29 29 16 13 17 16 13 10 6 359 340 327 333 323 329 11 24 30 40 33 26 18 13 5 2 3
92 89 85 79 60 67 77 85 85 62 48 36 41 41 39 35 32 37 28 19 19 21 9 11 9 8 2 351 357 341 334 346 41 22 27 36 30 20 13 8 2 358 352
121 104 101 98 77 65 55 57 77 98 78 51 32 35 35 33 26 30 29 22 17 22 15 12 19 11 1 4 349 330 331 337 11 350 5 26 23 15 10 4 360 3 357
152 148 136 130 108 82 71 72 69 62 58 43 30 25 25 27 27 25 26 27 21 26 18 5 15 23 356 354 19 29 344 302 318 314 348 12 9 4 357 352 357 358 360
203 176 154 131 105 94 101 103 106 98 88 36 32 32 23 25 23 23 26 28 25 26 23 9 15 11 7 348 356 11 358 287 295 310 315 348 352 348 346 346 350 350 354
193 180 166 143 119 106 109 117 116 103 97 70 49 36 25 21 21 22 26 29 27 28 27 19 13 15 16 358 346 334 347 336 328 280 299 319 330 328 328 325 331 338 344
160 151 150 140 130 122 120 122 129 129 114 88 54 30 16 7 9 18 23 28 27 26 24 19 18 16 11 6 0 7 346 317 310 295 289 304 308 308 314 318 329 337 335